Regional Weather Roundup
Issued by NWS Bismarck, ND

Home | Current Version | Previous Version | Text Only | Print | Product List | Glossary On
Versions: 1 2 3 4 5 6 7 8 9 10 11 12 13 14 15 16 17 18 19 20 21 22 23 24 25 26 27 28 29 30 31 32 33 34 35 36 37 38 39 40 41 42 43 44 45 46 47 48 49 50
000
ASUS43 KBIS 240410
RWRBIS

NWR BROADCAST TEXT
NATIONAL WEATHER SERVICE BISMARCK ND
1000 PM CST TUE JAN 23 2018

NOTE: "FAIR" INDICATES FEW OR NO CLOUDS BELOW 12,000 FEET WITH NO
SIGNIFICANT WEATHER AND/OR OBSTRUCTIONS TO VISIBILITY.


CITY           SKY/WX    TMP DP  RH WIND       PRES   REMARKS
WILLISTON      FAIR      13  11  92 S3        30.09S
MINOT          FAIR      17  13  84 S3        30.08F
MINOT AFB      CLEAR     12   9  88 S7        30.07F WCI   1
BISMARCK       FAIR      14  12  92 E3        30.15S
DICKINSON      FAIR      21  17  84 W12       30.07F WCI   9
GARRISON         N/A      8   5  87 CALM      30.11S
HETTINGER ARPT CLEAR     17  14  88 W6        30.13F WCI   9
JAMESTOWN      CLOUDY    20  18  92 NW13      30.15S WCI   7
CARRINGTON     CLOUDY    21  19  93 W9        30.16S WCI  11
HAZEN            N/A      5   5 100 CALM      30.14S
LINTON           N/A     14  14 100 E8        30.16S WCI   3
MANDAN         FAIR      19  19 100 E6        30.13S WCI  11
OAKES            N/A     18  18 100 N15       30.18R WCI   3
RUGBY            N/A     19  19 100 W8        30.11S WCI   9
STANLEY        FAIR      14  14 100 SW8       30.09S WCI   3
TIOGA          FAIR      14  14 100 SW10      30.08S WCI   1
WATFORD CITY   FAIR      16  14  93 SW5       30.09S WCI   9
$$

CITY           SKY/WX    TMP DP  RH WIND       PRES   REMARKS
GRAND FORKS    CLOUDY    24  19  81 W5        30.15R WCI  18
GRAND FORKS AF CLOUDY    24  18  78 NW8       30.14S WCI  15
DEVILS LAKE    CLOUDY    22  20  92 W8        30.13S WCI  12
FARGO          CLOUDY    23  19  85 NW9       30.17R WCI  13
CANDO          CLOUDY    21  23 100 W9        30.13S WCI  11
CAVALIER         N/A     25  19  80 W6        30.11F WCI  18
GRAFTON        CLOUDY    25  19  80 W7        30.15S WCI  17
GWINNER          N/A     19  18  93 NW12      30.17S WCI   7
LANGDON        CLOUDY    23  23 100 W8        30.09R WCI  14
ROLLA          CLOUDY    19  19 100 SW9       30.08R WCI   9
WALHALLA       FAIR      25  25 100 W6        30.11S WCI  18
$$

CITY           SKY/WX    TMP DP  RH WIND       PRES   REMARKS
ABERDEEN       CLEAR     19  18  95 N6        30.18R WCI  11
MOBRIDGE       CLEAR     21  16  81 CALM      30.12S
BUFFALO          N/A     25  16  68 W6        30.06S WCI  18
RAPID CITY     CLEAR     27  18  69 SW6       30.18S
GLASGOW        PTCLDY    12   8  84 E8        30.05F WCI   0
SIDNEY         CLEAR     18  14  84 S7        30.10S WCI   9
WOLF POINT     CLEAR      8   4  83 CALM      30.10S
GLENDIVE       CLEAR     18  15  88 S7        30.11S WCI   9
MILES CITY     CLEAR     20  15  81 S8        30.11F WCI  10
BAKER          CLEAR     20  15  81 CALM      30.11F
$$

CITY           SKY/WX    TMP DP  RH WIND       PRES   REMARKS
BILLINGS       PTCLDY    31  15  52 W16       30.05F WCI  20
GREAT FALLS    MOCLDY    33  14  45 S14       29.96F
REGINA         CLEAR     10   9  92 SE8       30.01S FOG     WCI  -1
ESTEVAN        CLEAR     12   9  85 SW9       30.04F WCI   0
$$




USA.gov is the U.S. government's official web portal to all federal, state and local government web resources and services.